Location: Ahstedt
(52.2048°N, 10.1060°E)
Time: 23:26:33
(UTC+00:00)

CORIOLIS - Pass Details

Date: 18 January 2026
Orbit: 816 x 835 km, 98.7° (Epoch: 7 February)

Event Time Altitude Azimuth Distance (km) Brightness Sun altitude
Rises 06:20:45 0° 13° (NNE) 3,399 7.2 -8.7°
Reaches altitude 10° 06:23:08 10° 10° (N) 2,461 6.5 -8.3°
Maximum altitude 06:28:30 61° 292° (WNW) 946 4.2 -7.6°
Drops below altitude 10° 06:33:50 10° 213° (SSW) 2,439 6.5 -6.8°
Sets 06:36:11 0° 210° (SSW) 3,367 7.3 -6.5°
